Weather History for Charlottetown, PE

Change the Weather History Date:

Sunday, August 17, 2014

  Actual Average Record
Temperature  
Mean Temperature 66 °F -  
Max Temperature 72 °F 67 °F 84 °F (2002)
Min Temperature 59 °F 51 °F 51 °F (1998)
Growing Degree Days 16 (Base 50)    
Moisture  
Dew Point 58 °F    
Average Humidity 82    
Maximum Humidity 94    
Minimum Humidity 57    
Precipitation  
Precipitation 0.08 in 0.12 in - ()
Sea Level Pressure  
Sea Level Pressure 29.86 in    
Wind  
Wind Speed 6 mph ()    
Max Wind Speed 13 mph    
Max Gust Speed 18 mph    
Visibility 14.8 miles    
Events Rain    
Averages and records for this station are not official NWS values.
T = Trace of Precipitation, MM = Missing Value Source: Averaged Metar Reports

Daily Weather History Graph

Daily Weather History Graph

Search for Another Location

Airport:

Trip Planner

Search our weather history database for the weather conditions in past years. The results will help you decide how hot, cold, wet, or windy it might be!

Date:

Astronomy

Aug. 17, 2014 Rise Set
Actual Time 6:13 AM ADT 8:18 PM ADT
Civil Twilight 5:41 AM ADT 8:50 PM ADT
Nautical Twilight 5:00 AM ADT 9:31 PM ADT
Astronomical Twilight 4:15 AM ADT 10:15 PM ADT
Moon No Moon Rise 2:22 PM ADT (8/17)
Length of Visible Light 15h 09m
Length of Day
14h 04m
Waning Gibbous, 49% of the Moon is Illuminated
Aug 17
Waning Gibbous
Aug 25
New
Sep 2
First Quarter
Sep 8
Full
Sep 15
Last Quarter

Hourly Weather History & Observations

Time (ADT) Temp. Dew Point Humidity Pressure Visibility Wind Dir Wind Speed Gust Speed Precip Events Conditions
12:00 AM 60.8 °F 57.2 °F 88% 29.93 in 15.0 mi SW 3.5 mph - N/A   Mostly Cloudy
1:00 AM 60.8 °F 57.2 °F 88% 29.92 in 15.0 mi SSW 8.1 mph - N/A   Mostly Cloudy
3:00 AM 60 °F 55 °F 78% 29.92 in 15 mi South 5.8 mph - -   Partly Cloudy
3:00 AM 60.8 °F 55.4 °F 82% 29.91 in 15.0 mi South 5.8 mph - N/A   Mostly Cloudy
4:00 AM 60.8 °F 55.4 °F 82% 29.91 in 15.0 mi South 8.1 mph - N/A   Mostly Cloudy
5:00 AM 60.8 °F 55.4 °F 82% 29.90 in 15.0 mi SSW 5.8 mph - N/A   Overcast
6:00 AM 60.8 °F 57.2 °F 88% 29.90 in 15.0 mi SW 8.1 mph - N/A   Overcast
7:00 AM 60.8 °F 57.2 °F 88% 29.91 in 15.0 mi SW 5.8 mph - N/A   Overcast
8:00 AM 60.8 °F 57.2 °F 88% 29.91 in 15.0 mi SSW 5.8 mph - N/A   Overcast
8:45 AM 62.6 °F 59.0 °F 88% 29.91 in 15.0 mi SSW 9.2 mph - N/A   Overcast
9:00 AM 63 °F 59 °F 81% 29.91 in 15 mi South 8.1 mph - -   Overcast
9:00 AM 62.6 °F 59.0 °F 88% 29.90 in 15.0 mi South 8.1 mph - N/A   Overcast
9:40 AM 62.6 °F 59.0 °F 88% 29.90 in 15.0 mi SSW 8.1 mph - N/A   Overcast
10:00 AM 62.6 °F 59.0 °F 88% 29.90 in 15.0 mi SW 5.8 mph - N/A   Overcast
11:00 AM 62.6 °F 59.0 °F 88% 29.91 in 15.0 mi SSW 10.4 mph - N/A   Overcast
12:00 PM 64.4 °F 59.0 °F 83% 29.89 in 15.0 mi SSW 4.6 mph - N/A   Mostly Cloudy
1:00 PM 66.2 °F 59.0 °F 78% 29.88 in 15.0 mi SE 8.1 mph - N/A   Mostly Cloudy
2:00 PM 69.8 °F 59.0 °F 68% 29.86 in 15.0 mi South 10.4 mph - N/A   Mostly Cloudy
3:00 PM 70 °F 58 °F 58% 29.85 in 15 mi South 8.1 mph - -   Partly Cloudy
3:00 PM 69.8 °F 59.0 °F 68% 29.84 in 15.0 mi South 8.1 mph - N/A   Mostly Cloudy
4:00 PM 69.8 °F 57.2 °F 64% 29.82 in 15.0 mi South 9.2 mph - N/A   Mostly Cloudy
5:00 PM 71.6 °F 55.4 °F 57% 29.81 in 15.0 mi SSW 8.1 mph - N/A   Mostly Cloudy
6:00 PM 69.8 °F 57.2 °F 64% 29.80 in 15.0 mi SE 5.8 mph - N/A   Mostly Cloudy
6:14 PM 68.0 °F 57.2 °F 68% 29.81 in 10.0 mi South 12.7 mph 18.4 mph N/A Rain Light Rain Showers
6:42 PM 64.4 °F 59.0 °F 83% 29.80 in 15.0 mi SE 3.5 mph - N/A Rain Light Rain Showers
7:00 PM 64.4 °F 60.8 °F 88% 29.80 in 15.0 mi Calm Calm - N/A Rain Light Rain Showers
7:48 PM 64.4 °F 60.8 °F 88% 29.79 in 15.0 mi SSE 6.9 mph - N/A   Mostly Cloudy
8:00 PM 64.4 °F 60.8 °F 88% 29.79 in 15.0 mi SSE 8.1 mph - N/A   Mostly Cloudy
9:00 PM 63 °F 61 °F 90% 29.78 in 15 mi SE 3.5 mph - -   Partly Cloudy
9:00 PM 62.6 °F 60.8 °F 94% 29.78 in 15.0 mi SE 3.5 mph - N/A   Mostly Cloudy
10:00 PM 62.6 °F 60.8 °F 94% 29.77 in 15.0 mi SE 4.6 mph - N/A   Overcast
11:00 PM 62.6 °F 60.8 °F 94% 29.76 in 15.0 mi SE 4.6 mph - N/A   Overcast
11:38 PM 62.6 °F 60.8 °F 94% 29.75 in 12.0 mi ESE 5.8 mph - N/A Rain Light Rain Showers